Regional Weather Roundup
Issued by NWS

Home | Current Version | Previous Version | Text Only | Print | Product List | Glossary On
Versions: 1 2 3 4 5 6 7 8 9 10 11 12 13 14 15 16 17 18 19 20 21 22 23 24 25 26 27 28 29 30 31 32 33 34 35 36 37 38 39 40 41 42 43 44 45 46 47 48 49 50
000
ASUS43 KDTX 210610
RWRMI
MICHIGAN HOURLY REGIONAL WEATHER ROUNDUP
NATIONAL WEATHER SERVICE DETROIT/PONTIAC MI
200 AM EDT MON AUG 21 2017

NOTE: "FAIR" INDICATES FEW OR NO CLOUDS BELOW 12,000 FEET WITH NO
SIGNIFICANT WEATHER AND/OR OBSTRUCTION TO VISIBILITY.

MIZ047>049-052>055-059>063-066>070-074>076-081>083-210700-
SOUTHEAST LOWER MICHIGAN

CITY           SKY/WX    TMP DP  RH WIND       PRES   REMARKS
ADRIAN         CLOUDY    68  66  93 NW3       30.11R
6HR MIN TEMP:  68; 6HR MAX TEMP:  78;

ALMA           CLOUDY    64  62  91 CALM      30.09S
ANN ARBOR      MOCLDY    65  65 100 SW5       30.10R
BAD AXE        CLOUDY    62  59  91 CALM      30.08S
6HR MIN TEMP:  61; 6HR MAX TEMP:  72;

CARO           MOCLDY    61  60  94 CALM      30.08S
DETROIT CITY   CLOUDY    72  65  78 S5        30.08F
6HR MIN TEMP:  72; 6HR MAX TEMP:  79;

DETROIT        CLOUDY    74  70  87 CALM      30.10S
6HR MIN TEMP:  74; 6HR MAX TEMP:  78; 6HR PCP: TRACE;

FLINT          PTCLDY    66  63  90 CALM      30.09R
6HR MIN TEMP:  66; 6HR MAX TEMP:  76;

GROSSE ILE     CLOUDY    71  68  89 CALM      30.08R
6HR MIN TEMP:  71; 6HR MAX TEMP:  76;

HILLSDALE      CLOUDY    63  61  94 CALM      30.12S FOG
HOWELL         PTCLDY    69  65  85 S5        30.10S
6HR MIN TEMP:  69; 6HR MAX TEMP:  78;


CITY           SKY/WX    TMP DP  RH WIND       PRES   REMARKS
JACKSON        CLEAR     67  64  90 CALM      30.11R
6HR MIN TEMP:  65; 6HR MAX TEMP:  80;

LAMBERTVILLE   MOCLDY    68  67  96 CALM      30.09S
6HR MIN TEMP:  68; 6HR MAX TEMP:  76;

LANSING        CLOUDY    68  61  78 CALM      30.10R
6HR MIN TEMP:  67; 6HR MAX TEMP:  79;

LAPEER         FAIR      63  61  96 CALM      30.09S
6HR MIN TEMP:  63; 6HR MAX TEMP:  75;

MASON          PTCLDY    69  64  84 SE6       30.11R
MONROE         CLOUDY    70  68  96 CALM      30.09R
MT. CLEMENS    CLOUDY    71  68  92 CALM      30.07F
6HR MIN TEMP:  69; 6HR MAX TEMP:  74;

PONTIAC        CLOUDY    70  64  81 CALM      30.09S
6HR MIN TEMP:  69; 6HR MAX TEMP:  79;

PORT HOPE        N/A     67  61  81 SW5       30.05R
6HR MIN TEMP:  66; 6HR MAX TEMP:  73;

PORT HURON     CLOUDY    64  63  94 CALM      30.09S
TRI CITIES     CLOUDY    69  64  84 SW5       30.08R
6HR MIN TEMP:  67; 6HR MAX TEMP:  77;

MIDLAND        FAIR      64  63  96 CALM      30.06S
6HR MIN TEMP:  63; 6HR MAX TEMP:  78;

TROY           CLOUDY    74  63  69 CALM      30.10F
SAGINAW HB     CLOUDY    64  63  94 S3        30.07S
$$
MIZ043>046-050>051-056>058-064>065-071>073-077>080-210700-
SOUTHWEST LOWER MICHIGAN

CITY           SKY/WX    TMP DP  RH WIND       PRES   REMARKS
BATTLE CREEK   PTCLDY    70  65  84 CALM      30.11R
6HR MIN TEMP:  69; 6HR MAX TEMP:  81;

BENTON HARBOR  CLOUDY    74  65  73 CALM      30.07R
6HR MIN TEMP:  73; 6HR MAX TEMP:  82;

BIG RAPIDS     CLOUDY    62  58  90 CALM      30.07F
6HR MIN TEMP:  61; 6HR MAX TEMP:  72;

COLDWATER      CLOUDY    69  68  96 SE3       30.11S
6HR MIN TEMP:  65; 6HR MAX TEMP:  77;

FREMONT        FAIR      65  65 100 CALM      30.06F
HOLLAND        CLOUDY    70  66  87 CALM      30.07S
6HR MIN TEMP:  69; 6HR MAX TEMP:  78;

GRAND RAPIDS   CLOUDY    70  66  87 SE3       30.08R
6HR MIN TEMP:  69; 6HR MAX TEMP:  79;

IONIA          MOCLDY    66  63  90 SW3       30.08R
6HR MIN TEMP:  64; 6HR MAX TEMP:  76;

KALAMAZOO      PTCLDY    73  64  73 CALM      30.09R
6HR MIN TEMP:  73; 6HR MAX TEMP:  82;

LUDINGTON      MOCLDY    73  62  68 SW7       30.04S
6HR MIN TEMP:  67; 6HR MAX TEMP:  74;

MARSHALL       CLOUDY    67  67  98 CALM      30.10R
6HR MIN TEMP:  64; 6HR MAX TEMP:  78;

MOUNT PLEASANT CLOUDY    67  64  89 CALM      30.06F
6HR MIN TEMP:  65; 6HR MAX TEMP:  78;

MUSKEGON       CLOUDY    69  64  84 CALM      30.06S
6HR MIN TEMP:  69; 6HR MAX TEMP:  77;

SOUTH HAVEN    PTCLDY    72  68  88 CALM      30.07S
$$
MIZ016>042-210700-
NORTHERN LOWER MICHIGAN

CITY           SKY/WX    TMP DP  RH WIND       PRES   REMARKS
ALPENA         CLEAR     70  62  76 SW7       30.03R
6HR MIN TEMP:  65; 6HR MAX TEMP:  78;

BEAVER ISLAND  MOCLDY    70  67  89 SW12G21   30.00S
6HR MIN TEMP:  70; 6HR MAX TEMP:  73;

BELLAIRE       CLEAR     67  61  83 SW3       30.03S
6HR MIN TEMP:  65; 6HR MAX TEMP:  76;

CADILLAC       CLOUDY    68  61  79 SW5       30.07S
CHARLEVOIX     PTCLDY    72  64  75 SW8       30.04S
6HR MIN TEMP:  71; 6HR MAX TEMP:  75;

FRANKFORT      CLEAR     73  67  83 SW3       30.04S
GAYLORD        CLEAR     66  59  78 SW8       30.05S
6HR MIN TEMP:  66; 6HR MAX TEMP:  73;

GRAYLING       CLEAR     62  58  86 CALM      30.07R
6HR MIN TEMP:  61; 6HR MAX TEMP:  74;

HARBOR SPRINGS CLEAR     70  64  79 W3        30.01S
HOUGHTON LAKE  MOCLDY    69  61  75 SW5       30.07S
6HR MIN TEMP:  69; 6HR MAX TEMP:  73;

MANISTEE       CLOUDY    64  63  96 NE3       30.04S
OSCODA         CLOUDY    69  61  76 SW6       30.05R
6HR MIN TEMP:  67; 6HR MAX TEMP:  75;

PELLSTON       CLEAR     72  63  73 SW12      30.00S
6HR MIN TEMP:  68; 6HR MAX TEMP:  76;

ROGERS CITY    CLEAR     68  61  76 SW8       30.02S
TRAVERSE CITY  CLEAR     71  61  70 SW5       30.02R
6HR MIN TEMP:  71; 6HR MAX TEMP:  77;

$$
MIZ007>008-015-210700-
EASTERN UPPER MICHIGAN

CITY           SKY/WX    TMP DP  RH WIND       PRES   REMARKS
KINROSS        CLOUDY    68  64  87 SW6       29.99S
6HR MIN TEMP:  67; 6HR MAX TEMP:  73;

MACKINAC ISLAN MOCLDY    71  65  81 SW10G20   29.99S
6HR MIN TEMP:  68; 6HR MAX TEMP:  74;

NEWBERRY       CLOUDY    65  65  97 CALM      29.99R
6HR MIN TEMP:  65; 6HR MAX TEMP:  70;

S. S. MARIE    CLOUDY    70  64  81 SW7       29.97S
6HR MIN TEMP:  68; 6HR MAX TEMP:  74;

MUNISING         N/A     68  67  96 S3        29.98R
6HR MIN TEMP:  68; 6HR MAX TEMP:  77;

$$
MIZ004>006-011>014-085-210700-
CENTRAL UPPER MICHIGAN

CITY           SKY/WX    TMP DP  RH WIND       PRES   REMARKS
MANISTIQUE     HAZE      63  57  82 CALM      29.99S VSB 1/4
6HR MIN TEMP:  63; 6HR MAX TEMP:  68;

ESCANABA       CLOUDY    69  68  96 CALM      30.00R
6HR MIN TEMP:  69; 6HR MAX TEMP:  74;

MENOMINEE      MOCLDY    72  66  83 W3        30.01S
6HR MIN TEMP:  71; 6HR MAX TEMP:  77;

SAWYER-GWINN   CLOUDY    68  63  82 CALM      30.01F
6HR MIN TEMP:  68; 6HR MAX TEMP:  77;

$$
MIZ001>003-009>011-084-210700-
WESTERN UPPER MICHIGAN

CITY           SKY/WX    TMP DP  RH WIND       PRES   REMARKS
IRON MOUNTAIN  CLOUDY    70  65  84 CALM      30.01R
6HR MIN TEMP:  69; 6HR MAX TEMP:  80;

HOUGHTON       CLEAR     63  56  78 W7        29.98R
6HR MIN TEMP:  62; 6HR MAX TEMP:  71;

COPPER HARBOR    N/A     70  53  54 NW8       29.95R
6HR MIN TEMP:  70; 6HR MAX TEMP:  74;

IRONWOOD       CLEAR     59  58  96 SW5       30.04S
6HR MIN TEMP:  56; 6HR MAX TEMP:  72;

$$

ABBREVIATIONS USED IN REMARKS
   TC - TEMPERATURE IN CELSIUS
  WCI - WIND CHILL INDEX
   HX - HEAT INDEX
  VSB - VISIBILITY





USA.gov is the U.S. government's official web portal to all federal, state and local government web resources and services.